DW6610 Weather Reports


time (UTC)temp
C
wind
direction
speed
KPH
gust
KPH
rain 1hr
cm
rain 24hr
cm
rain mn
cm
humidity
%
barometer
mb
20260831185551 35 68 1.6 6.4 0.00 0.00 0.00 56 1019.1
20260831185051 35 93 3.2 6.4 0.00 0.00 0.00 58 1019.0
20260831184606 35 101 1.6 6.4 0.00 0.00 0.00 63 1019.1
20260831184052 35 122 3.2 6.4 0.00 0.00 0.00 55 1019.1
20260831183551 35 124 0.0 11.3 0.00 0.00 0.00 56 1019.3
20260831183104 35 134 3.2 11.3 0.00 0.00 0.00 54 1019.4
20260831182551 36 80 1.6 6.4 0.00 0.00 0.00 55 1019.4
20260831182051 36 0 1.6 8.0 0.00 0.00 0.00 58 1019.5
20260831181610 36 80 3.2 8.0 0.00 0.00 0.00 55 1019.6
20260831181053 36 86 3.2 6.4 0.00 0.00 0.00 56 1019.7
20260831180551 35 116 3.2 9.7 0.00 0.00 0.00 59 1019.8
20260831180110 35 90 1.6 9.7 0.00 0.00 0.00 58 1019.8
20260831175552 35 353 3.2 9.7 0.00 0.00 0.00 55 1019.9
20260831175052 35 30 3.2 9.7 0.00 0.00 0.00 57 1019.9
20260831174605 35 0 1.6 11.3 0.00 0.00 0.00 55 1020.0
20260831174054 35 114 3.2 11.3 0.00 0.00 0.00 55 1020.1
20260831173552 35 90 4.8 11.3 0.00 0.00 0.00 55 1020.2
20260831173105 35 74 3.2 6.4 0.00 0.00 0.00 55 1020.2
20260831172553 35 89 1.6 9.7 0.00 0.00 0.00 62 1020.3
20260831172051 35 77 1.6 9.7 0.00 0.00 0.00 56 1020.3
20260831171605 35 95 1.6 8.0 0.00 0.00 0.00 59 1020.3
20260831171052 35 79 1.6 8.0 0.00 0.00 0.00 60 1020.5
20260831170552 35 75 1.6 8.0 0.00 0.00 0.00 60 1020.5
20260831170106 35 80 1.6 8.0 0.00 0.00 0.00 57 1020.4
20260831165551 35 91 0.0 8.0 0.00 0.00 0.00 58 1020.4
20260831165051 35 335 1.6 6.4 0.00 0.00 0.00 58 1020.5
20260831164623 35 102 3.2 6.4 0.00 0.00 0.00 58 1020.6
20260831164052 35 109 1.6 6.4 0.00 0.00 0.00 63 1020.5
20260831163551 34 75 1.6 4.8 0.00 0.00 0.00 63 1020.6
20260831163103 33 94 0.0 6.4 0.00 0.00 0.00 62 1020.6
20260831162552 33 94 1.6 9.7 0.00 0.00 0.00 63 1020.6
20260831162051 33 48 3.2 9.7 0.00 0.00 0.00 60 1020.6
20260831161607 34 100 3.2 9.7 0.00 0.00 0.00 59 1020.5
20260831161056 33 39 1.6 6.4 0.00 0.00 0.00 62 1020.6
20260831160551 33 94 1.6 6.4 0.00 0.00 0.00 62 1020.5
20260831160106 34 90 1.6 6.4 0.00 0.00 0.00 59 1020.5
20260831155553 34 79 1.6 6.4 0.00 0.00 0.00 61 1020.6
20260831155052 34 116 1.6 6.4 0.00 0.00 0.00 61 1020.6
20260831154632 34 108 1.6 8.0 0.00 0.00 0.00 63 1020.6
20260831154052 33 98 1.6 11.3 0.00 0.00 0.00 64 1020.6
20260831153554 33 82 4.8 11.3 0.00 0.00 0.00 62 1020.5
20260831153110 33 108 3.2 8.0 0.00 0.00 0.00 63 1020.4
20260831152552 33 70 3.2 9.7 0.00 0.00 0.00 64 1020.4
20260831152053 33 56 4.8 11.3 0.00 0.00 0.00 65 1020.4
20260831151614 33 32 3.2 11.3 0.00 0.00 0.00 65 1020.3
20260831151052 33 340 4.8 8.0 0.00 0.00 0.00 63 1020.4
20260831150552 33 57 1.6 8.0 0.00 0.00 0.00 64 1020.3
20260831150113 33 86 0.0 6.4 0.00 0.00 0.00 69 1020.4
20260831145551 32 44 1.6 6.4 0.00 0.00 0.00 66 1020.4
20260831145051 32 285 3.2 8.0 0.00 0.00 0.00 66 1020.3
20260831144614 32 16 1.6 8.0 0.00 0.00 0.00 66 1020.4
20260831144052 32 56 0.0 4.8 0.00 0.00 0.00 68 1020.4
20260831143552 32 56 1.6 4.8 0.00 0.00 0.00 69 1020.4
20260831143123 32 70 1.6 4.8 0.00 0.00 0.00 70 1020.4
20260831142553 32 117 1.6 4.8 0.00 0.00 0.00 71 1020.3
20260831142055 32 106 1.6 4.8 0.00 0.00 0.00 70 1020.3
20260831141610 31 92 0.0 3.2 0.00 0.00 0.00 72 1020.3
20260831141051 31 91 0.0 3.2 0.00 0.00 0.00 72 1020.4
20260831140551 31 0 0.0 3.2 0.00 0.00 0.00 73 1020.4
20260831140111 31 0 0.0 3.2 0.00 0.00 0.00 75 1020.4
20260831135551 30 75 0.0 4.8 0.00 0.00 0.00 76 1020.3
20260831135052 30 79 1.6 4.8 0.00 0.00 0.00 76 1020.4
20260831134605 30 54 1.6 4.8 0.00 0.00 0.00 77 1020.3
20260831134051 29 81 0.0 4.8 0.00 0.00 0.00 79 1020.3
20260831133551 28 75 0.0 4.8 0.00 0.00 0.00 80 1020.2
20260831133108 28 75 0.0 4.8 0.00 0.00 0.00 83 1020.2
20260831132554 27 49 0.0 4.8 0.00 0.00 0.00 84 1020.2
20260831132053 26 50 1.6 4.8 0.00 0.00 0.00 84 1020.3
20260831131610 26 91 0.0 4.8 0.00 0.00 0.00 87 1020.2
20260831131052 25 0 1.6 4.8 0.00 0.00 0.00 89 1020.1
20260831130552 25 69 1.6 3.2 0.00 0.00 0.00 90 1020.1
20260831130127 24 0 0.0 3.2 0.00 0.00 0.00 92 1020.0
20260831125551 23 0 1.6 3.2 0.00 0.00 0.00 93 1020.0
20260831125053 23 0 0.0 4.8 0.00 0.00 0.00 94 1020.1
20260831124605 23 65 0.0 4.8 0.00 0.00 0.00 94 1020.0
20260831124051 22 75 0.0 1.6 0.00 0.00 0.00 95 1019.9
20260831123552 22 0 0.0 1.6 0.00 0.00 0.00 96 1019.9
20260831123103 22 0 0.0 1.6 0.00 0.00 0.00 96 1019.9
20260831122552 22 0 0.0 1.6 0.00 0.00 0.00 96 1019.8
20260831122052 22 0 0.0 1.6 0.00 0.00 0.00 96 1019.8
20260831121609 22 0 0.0 1.6 0.00 0.00 0.00 96 1019.6
20260831121055 22 0 0.0 1.6 0.00 0.00 0.00 96 1019.6
20260831120551 21 0 0.0 0.0 0.00 0.00 0.00 96 1019.5
20260831120113 21 0 0.0 0.0 0.00 0.00 0.00 96 1019.5
20260831115551 21 0 0.0 0.0 0.00 0.00 0.00 96 1019.5
20260831115052 21 0 0.0 1.6 0.00 0.00 0.00 96 1019.5
20260831114610 22 0 0.0 1.6 0.00 0.00 0.00 96 1019.5
20260831114052 21 75 0.0 1.6 0.00 0.00 0.00 96 1019.3
20260831113553 21 0 0.0 1.6 0.00 0.00 0.00 96 1019.2
20260831113108 21 0 0.0 1.6 0.00 0.00 0.00 96 1019.3
20260831112551 21 0 0.0 1.6 0.00 0.00 0.00 96 1019.1
20260831112051 21 0 0.0 1.6 0.00 0.00 0.00 95 1019.1
20260831111605 22 0 0.0 1.6 0.00 0.00 0.00 95 1019.0
20260831111051 22 0 0.0 0.0 0.00 0.00 0.00 95 1019.1
20260831110551 22 0 0.0 1.6 0.00 0.00 0.00 95 1019.1
20260831110108 22 0 0.0 1.6 0.00 0.00 0.00 95 1019.1
20260831105551 22 0 0.0 1.6 0.00 0.00 0.00 95 1019.0
20260831105052 22 0 0.0 1.6 0.00 0.00 0.00 94 1018.9
20260831104606 22 0 0.0 1.6 0.00 0.00 0.00 94 1018.8
20260831104051 22 0 0.0 1.6 0.00 0.00 0.00 94 1018.7
20260831103555 22 0 0.0 1.6 0.00 0.00 0.00 94 1018.7
20260831103104 22 0 0.0 1.6 0.00 0.00 0.00 94 1018.7
20260831102556 22 0 0.0 1.6 0.00 0.00 0.00 94 1018.5
20260831102051 22 0 0.0 1.6 0.00 0.00 0.00 94 1018.5
20260831101609 22 75 0.0 1.6 0.00 0.00 0.00 94 1018.5
20260831101051 22 0 0.0 1.6 0.00 0.00 0.00 93 1018.5
20260831100551 22 0 0.0 1.6 0.00 0.00 0.00 93 1018.4
20260831100109 22 0 0.0 1.6 0.00 0.00 0.00 93 1018.4
20260831095551 22 0 0.0 3.2 0.00 0.00 0.00 93 1018.2
20260831095052 22 73 0.0 3.2 0.00 0.00 0.00 93 1018.2
20260831094632 22 0 0.0 1.6 0.00 0.00 0.00 94 1018.2
20260831094052 22 0 0.0 1.6 0.00 0.00 0.00 94 1018.3
20260831093550 22 0 0.0 1.6 0.00 0.00 0.00 94 1018.3
20260831093107 22 84 0.0 1.6 0.00 0.00 0.00 94 1018.4
20260831092550 22 83 0.0 1.6 0.00 0.00 0.00 94 1018.3
20260831092049 22 0 0.0 1.6 0.00 0.00 0.00 94 1018.3
20260831091617 22 0 0.0 0.0 0.00 0.00 0.00 93 1018.3
20260831091049 22 0 0.0 1.6 0.00 0.00 0.00 93 1018.3
20260831090549 22 0 0.0 1.6 0.00 0.00 0.00 93 1018.3
20260831090107 22 0 0.0 0.0 0.00 0.00 0.00 93 1018.2
20260831085550 22 0 0.0 0.0 0.00 0.00 0.00 92 1018.3
20260831085050 22 0 0.0 0.0 0.00 0.00 0.00 92 1018.2
20260831084602 23 0 0.0 1.6 0.00 0.00 0.00 91 1018.1
20260831084049 23 0 0.0 1.6 0.00 0.00 0.00 91 1018.0
20260831083550 23 0 0.0 1.6 0.00 0.00 0.00 91 1018.0
20260831083107 23 0 0.0 1.6 0.00 0.00 0.00 91 1018.0
20260831082550 23 0 0.0 1.6 0.00 0.00 0.00 91 1018.0
20260831082050 23 0 0.0 1.6 0.00 0.00 0.00 91 1018.0
20260831081605 23 0 0.0 1.6 0.00 0.00 0.00 90 1017.8
20260831081051 23 0 0.0 1.6 0.00 0.00 0.00 90 1017.9
20260831080549 23 0 0.0 1.6 0.00 0.00 0.00 90 1017.8
20260831080106 23 0 0.0 1.6 0.00 0.00 0.00 90 1017.8
20260831075549 23 83 0.0 1.6 0.00 0.00 0.00 90 1017.8
20260831075050 23 0 0.0 1.6 0.00 0.00 0.00 89 1017.8
20260831074613 23 0 0.0 1.6 0.00 0.00 0.00 90 1017.9
20260831074051 23 0 0.0 1.6 0.00 0.00 0.00 89 1017.8
20260831073550 23 0 0.0 1.6 0.00 0.00 0.00 89 1017.8
20260831073107 23 83 0.0 1.6 0.00 0.00 0.00 89 1017.8
20260831072549 23 0 0.0 1.6 0.00 0.00 0.00 89 1017.8
20260831072050 23 83 0.0 1.6 0.00 0.00 0.00 88 1018.0
20260831071615 23 0 0.0 1.6 0.00 0.00 0.00 89 1018.0
20260831071051 23 0 0.0 1.6 0.00 0.00 0.00 89 1018.1
20260831070549 23 0 0.0 1.6 0.00 0.00 0.00 89 1018.1
20260831070107 23 0 0.0 1.6 0.00 0.00 0.00 89 1018.1
20260831065549 23 0 0.0 1.6 0.00 0.00 0.00 89 1018.2
20260831065051 23 0 0.0 1.6 0.00 0.00 0.00 90 1018.1
20260831064620 23 0 0.0 1.6 0.00 0.00 0.00 90 1018.2
20260831064050 23 0 0.0 0.0 0.00 0.00 0.00 90 1018.3
20260831063550 23 0 0.0 1.6 0.00 0.00 0.00 89 1018.3
20260831063117 24 0 0.0 1.6 0.00 0.00 0.00 89 1018.4
20260831062552 24 0 0.0 1.6 0.00 0.00 0.00 89 1018.3
20260831062052 24 0 0.0 1.6 0.00 0.00 0.00 88 1018.4
20260831061603 24 0 0.0 1.6 0.00 0.00 0.00 89 1018.4
20260831061052 24 0 0.0 1.6 0.00 0.00 0.00 87 1018.3
20260831060551 25 0 0.0 1.6 0.00 0.00 0.00 85 1018.4
20260831060126 25 0 0.0 1.6 0.00 0.00 0.00 86 1018.4
20260831055551 25 0 0.0 1.6 0.00 0.00 0.00 85 1018.4
20260831055052 25 0 0.0 1.6 0.00 0.00 0.00 85 1018.4
20260831054602 25 0 0.0 1.6 0.00 0.00 0.00 84 1018.3
20260831054051 25 0 0.0 1.6 0.00 0.00 0.00 84 1018.3
20260831053552 25 0 0.0 1.6 0.00 0.00 0.00 83 1018.4
20260831053112 25 0 0.0 1.6 0.00 0.00 0.00 82 1018.3
20260831052552 25 0 0.0 1.6 0.00 0.00 0.00 82 1018.3
20260831052051 26 0 0.0 1.6 0.00 0.00 0.00 81 1018.2
20260831051614 26 0 0.0 1.6 0.00 0.00 0.00 80 1018.2
20260831051051 26 0 0.0 1.6 0.00 0.00 0.00 80 1018.2
20260831050551 26 82 0.0 3.2 0.00 0.00 0.00 80 1018.1
20260831050120 26 85 0.0 3.2 0.00 0.00 0.00 80 1018.2
20260831045551 26 0 0.0 3.2 0.00 0.00 0.00 79 1018.2
20260831045051 26 0 0.0 3.2 0.00 0.00 0.00 79 1018.1
20260831044607 26 71 0.0 3.2 0.00 0.00 0.00 79 1018.2
20260831044052 26 0 0.0 1.6 0.00 0.00 0.00 78 1018.3
20260831043553 26 0 0.0 4.8 0.00 0.00 0.00 78 1018.3
20260831043103 27 50 0.0 4.8 0.00 0.00 0.00 78 1018.3
20260831042552 27 41 1.6 4.8 0.00 0.00 0.00 77 1018.3
20260831042054 27 57 0.0 4.8 0.00 0.00 0.00 77 1018.3
20260831041604 27 68 1.6 4.8 0.00 0.00 0.00 77 1018.3
20260831041055 27 61 1.6 4.8 0.00 0.00 0.00 77 1018.3
20260831040553 27 77 1.6 4.8 0.00 0.00 0.00 77 1018.3
20260831040105 27 21 1.6 4.8 0.00 0.00 0.00 77 1018.3
20260831035553 27 0 1.6 3.2 0.00 0.00 0.00 76 1018.3
20260831035051 27 70 0.0 6.4 0.00 0.00 0.00 76 1018.3
20260831034600 27 75 1.6 6.4 0.00 0.00 0.00 76 1018.2
20260831034051 27 100 1.6 4.8 0.00 0.00 0.00 76 1018.2
20260831033553 27 46 1.6 4.8 0.00 0.00 0.00 76 1018.1
20260831033113 27 66 0.0 4.8 0.00 0.00 0.00 76 1018.1
20260831032551 27 0 1.6 4.8 0.00 0.00 0.00 76 1018.0
20260831032052 27 93 0.0 4.8 0.00 0.00 0.00 76 1018.1
20260831031605 27 86 1.6 6.4 0.00 0.00 0.00 75 1018.0
20260831031053 27 82 1.6 6.4 0.00 0.00 0.00 75 1018.0
20260831030552 27 71 0.0 6.4 0.00 0.00 0.00 75 1018.0
20260831030105 28 53 1.6 6.4 0.00 0.00 0.00 75 1018.0
20260831025553 28 50 1.6 4.8 0.00 0.00 0.00 75 1017.9
20260831025055 28 70 0.0 4.8 0.00 0.00 0.00 75 1017.9
20260831024605 28 96 0.0 4.8 0.00 0.00 0.00 75 1017.9
20260831024053 28 75 0.0 4.8 0.00 0.00 0.00 75 1017.9
20260831023552 28 31 1.6 6.4 0.00 0.00 0.00 74 1017.8
20260831023111 28 60 1.6 6.4 0.00 0.00 0.00 74 1017.8
20260831022552 28 52 1.6 6.4 0.00 0.00 0.00 74 1017.7
20260831022052 28 94 1.6 4.8 0.00 0.00 0.00 74 1017.7
20260831021614 28 94 1.6 4.8 0.00 0.00 0.00 74 1017.7
20260831021053 28 47 1.6 4.8 0.00 0.00 0.00 74 1017.6
20260831020552 28 32 0.0 3.2 0.00 0.00 0.00 74 1017.5
20260831020116 28 81 0.0 3.2 0.00 0.00 0.00 74 1017.4
20260831015552 28 83 0.0 3.2 0.00 0.00 0.00 73 1017.4
20260831015051 28 68 0.0 4.8 0.00 0.00 0.00 73 1017.4
20260831014604 29 134 0.0 4.8 0.00 0.00 0.00 72 1017.2
20260831014051 29 80 0.0 3.2 0.00 0.00 0.00 72 1017.3
20260831013551 29 0 0.0 3.2 0.00 0.00 0.00 72 1017.3
20260831013101 29 78 0.0 3.2 0.00 0.00 0.00 72 1017.4
20260831012552 29 115 0.0 3.2 0.00 0.00 0.00 72 1017.3
20260831012052 30 129 0.0 3.2 0.00 0.00 0.00 71 1017.2
20260831011609 30 81 0.0 3.2 0.00 0.00 0.00 70 1017.1
20260831011052 30 81 0.0 3.2 0.00 0.00 0.00 70 1017.1
20260831010552 30 79 0.0 3.2 0.00 0.00 0.00 69 1017.0
20260831005556 30 74 0.0 1.6 0.00 0.00 0.00 69 1017.0
20260831005052 30 74 0.0 1.6 0.00 0.00 0.00 67 1016.9
20260831004600 31 0 0.0 1.6 0.00 0.00 0.00 66 1016.9
20260831004052 31 73 0.0 3.2 0.00 0.00 0.00 65 1016.9
20260831003551 31 79 0.0 3.2 0.00 0.00 0.00 65 1017.0
20260831003105 31 0 0.0 1.6 0.00 0.00 0.00 64 1016.9
20260831002644 31 0 0.0 1.6 0.00 0.00 0.00 64 1016.9
20260831002052 31 0 0.0 1.6 0.00 0.00 0.00 63 1016.9
20260831001559 32 0 0.0 3.2 0.00 0.00 0.00 62 1016.8
20260831001051 32 79 0.0 3.2 0.00 0.00 0.00 62 1016.7
20260831000551 32 76 0.0 3.2 0.00 0.00 0.00 62 1016.8
20260831000112 32 0 0.0 4.8 0.00 0.00 0.00 61 1016.9
20260830235552 32 0 0.0 6.4 0.00 0.00 0.00 61 1016.8
20260830235053 33 72 0.0 6.4 0.00 0.00 0.00 60 1016.8
20260830234613 33 88 1.6 6.4 0.00 0.00 0.00 59 1016.8
20260830234056 33 280 1.6 6.4 0.00 0.00 0.00 58 1017.0
20260830233553 33 98 1.6 6.4 0.00 0.00 0.00 58 1016.9
20260830233103 33 81 1.6 8.0 0.00 0.00 0.00 58 1016.9
20260830232553 33 110 1.6 8.0 0.00 0.00 0.00 57 1016.8
20260830232053 34 174 3.2 8.0 0.00 0.00 0.00 57 1016.7
20260830231612 33 245 1.6 8.0 0.00 0.00 0.00 58 1016.7
20260830231051 33 96 3.2 8.0 0.00 0.00 0.00 57 1016.7
20260830230551 34 335 1.6 6.4 0.00 0.00 0.00 57 1016.8
20260830230108 34 82 1.6 8.0 0.00 0.00 0.00 56 1016.8
20260830225553 35 244 1.6 9.7 0.00 0.00 0.00 55 1016.8
20260830225052 35 42 3.2 9.7 0.00 0.00 0.00 55 1016.8
20260830224608 35 112 3.2 8.0 0.00 0.00 0.00 54 1016.8
20260830224052 36 169 3.2 8.0 0.00 0.00 0.00 53 1016.7
20260830223552 36 92 3.2 12.9 0.00 0.00 0.00 52 1016.7
20260830223100 36 105 3.2 12.9 0.00 0.00 0.00 52 1016.7
20260830222553 36 353 3.2 9.7 0.00 0.00 0.00 50 1016.6
20260830222052 36 347 1.6 8.0 0.00 0.00 0.00 49 1016.6
20260830221610 36 110 4.8 8.0 0.00 0.00 0.00 51 1016.7
20260830221052 36 73 3.2 9.7 0.00 0.00 0.00 50 1016.7
20260830220552 37 194 3.2 9.7 0.00 0.00 0.00 49 1016.8
20260830220115 37 37 3.2 9.7 0.00 0.00 0.00 49 1016.7
20260830215554 37 65 3.2 9.7 0.00 0.00 0.00 48 1016.8
20260830215053 37 7 3.2 8.0 0.00 0.00 0.00 48 1016.8
20260830214608 37 306 3.2 8.0 0.00 0.00 0.00 48 1016.8
20260830214052 37 336 3.2 9.7 0.00 0.00 0.00 49 1016.9
20260830213553 37 60 3.2 9.7 0.00 0.00 0.00 48 1016.8
20260830213126 37 54 3.2 9.7 0.00 0.00 0.00 49 1016.9
20260830212552 37 108 3.2 9.7 0.00 0.00 0.00 49 1016.8
20260830212052 37 147 1.6 9.7 0.00 0.00 0.00 50 1016.9
20260830211603 36 75 1.6 9.7 0.00 0.00 0.00 51 1016.9
20260830211052 36 86 3.2 11.3 0.00 0.00 0.00 47 1017.0
20260830210551 36 79 4.8 11.3 0.00 0.00 0.00 49 1017.1
20260830210106 36 29 3.2 9.7 0.00 0.00 0.00 48 1017.1
20260830205552 36 122 4.8 11.3 0.00 0.00 0.00 49 1017.1
20260830205051 37 347 4.8 11.3 0.00 0.00 0.00 48 1017.1
20260830204611 36 74 1.6 11.3 0.00 0.00 0.00 54 1017.2
20260830204053 36 75 3.2 9.7 0.00 0.00 0.00 51 1017.2
20260830203553 36 222 1.6 9.7 0.00 0.00 0.00 52 1017.3
20260830203110 36 294 1.6 11.3 0.00 0.00 0.00 52 1017.3
20260830202552 36 117 3.2 11.3 0.00 0.00 0.00 55 1017.4
20260830202054 35 56 3.2 11.3 0.00 0.00 0.00 53 1017.5
20260830201604 35 121 1.6 9.7 0.00 0.00 0.00 53 1017.5
20260830201051 35 290 4.8 12.9 0.00 0.00 0.00 53 1017.5
20260830200552 35 255 3.2 12.9 0.00 0.00 0.00 54 1017.5
20260830195552 35 94 1.6 8.0 0.00 0.00 0.00 56 1017.7
20260830195055 35 105 3.2 11.3 0.00 0.00 0.00 53 1017.7
20260830194616 35 66 4.8 11.3 0.00 0.00 0.00 55 1017.8
20260830194052 36 46 3.2 8.0 0.00 0.00 0.00 51 1018.0
20260830193552 36 71 1.6 8.0 0.00 0.00 0.00 56 1018.0
20260830193102 35 43 3.2 11.3 0.00 0.00 0.00 55 1018.1
20260830192551 35 96 3.2 11.3 0.00 0.00 0.00 53 1018.3
20260830192051 36 103 1.6 8.0 0.00 0.00 0.00 56 1018.2
20260830191557 35 99 3.2 8.0 0.00 0.00 0.00 54 1018.3
20260830191051 35 352 3.2 8.0 0.00 0.00 0.00 55 1018.4
20260830190553 35 115 3.2 8.0 0.00 0.00 0.00 54 1018.4
20260830190104 35 131 3.2 8.0 0.00 0.00 0.00 54 1018.6